Saginaw Browne, MI

8:00 PM EDT on May 29, 2017 (GMT -0400)
Saginaw County-Browne

Weather History for KHYX - August, 2013

Change the Weather History Date:

Saturday, August 17, 2013

  Actual Average (KMBS) Record (KMBS)
Temperature  
Mean Temperature 64 °F -  
Max Temperature 78 °F 76 °F 89 °F (2015)
Min Temperature 50 °F 55 °F 53 °F (1997)
Degree Days  
Heating Degree Days 1    
Growing Degree Days 14 (Base 50)    
Moisture  
Dew Point 50 °F    
Average Humidity 62    
Maximum Humidity 100    
Minimum Humidity 30    
Precipitation  
Precipitation 0.00 in - - ()
Sea Level Pressure  
Sea Level Pressure 30.24 in    
Wind  
Wind Speed 1 mph (SE)    
Max Wind Speed 8 mph    
Max Gust Speed -    
Visibility 10 miles    
Events      
Averages and records for this station are not official NWS values.
T = Trace of Precipitation, MM = Missing Value Source: NWS Daily Summary

Daily Weather History Graph

Daily Weather History Graph

Search for Another Location

Airport or City:

Trip Planner

Search our weather history database for the weather conditions in past years. The results will help you decide how hot, cold, wet, or windy it might be!

Date:

Astronomy

Aug. 17, 2013 Rise Set
Actual Time 6:42 AM EDT 8:35 PM EDT
Civil Twilight 6:12 AM EDT 9:05 PM EDT
Nautical Twilight 5:34 AM EDT 9:43 PM EDT
Astronomical Twilight 4:53 AM EDT 10:23 PM EDT
Moon 5:52 PM EDT (8/17) 2:41 AM EDT (8/17)
Length of Visible Light 14h 53m
Length of Day
13h 52m
Waxing Gibbous, 84% of the Moon is Illuminated
Aug 17
Waxing Gibbous
Aug 20
Full
Aug 28
Last Quarter
Sep 5
New
Sep 12
First Quarter

Hourly Weather History & Observations

Time (EDT) Temp. Dew Point Humidity Pressure Visibility Wind Dir Wind Speed Gust Speed Precip Events Conditions
12:15 AM 59.0 °F 51.8 °F 77% 30.21 in 10.0 mi Calm Calm - N/A   Clear
12:35 AM 59.0 °F 51.8 °F 77% 30.22 in 10.0 mi Calm Calm - N/A   Clear
12:55 AM 57.2 °F 51.8 °F 82% 30.22 in 10.0 mi Calm Calm - N/A   Clear
1:15 AM 57.2 °F 51.8 °F 82% 30.22 in 10.0 mi Calm Calm - N/A   Clear
1:34 AM 55.4 °F 51.8 °F 88% 30.22 in 10.0 mi Calm Calm - N/A   Clear
1:55 AM 55.4 °F 51.8 °F 88% 30.22 in 10.0 mi Calm Calm - N/A   Clear
2:15 AM 55.4 °F 51.8 °F 88% 30.23 in 10.0 mi Calm Calm - N/A   Clear
2:35 AM 55.4 °F 51.8 °F 88% 30.23 in 10.0 mi Calm Calm - N/A   Clear
2:55 AM 55.4 °F 51.8 °F 88% 30.23 in 10.0 mi Calm Calm - N/A   Clear
3:15 AM 53.6 °F 51.8 °F 94% 30.23 in 10.0 mi Calm Calm - N/A   Clear
3:35 AM 53.6 °F 51.8 °F 94% 30.23 in 10.0 mi Calm Calm - N/A   Clear
3:55 AM 53.6 °F 51.8 °F 94% 30.23 in 10.0 mi Calm Calm - N/A   Clear
4:14 AM 51.8 °F 50.0 °F 94% 30.24 in 10.0 mi Calm Calm - N/A   Clear
4:35 AM 51.8 °F 50.0 °F 94% 30.24 in 10.0 mi Calm Calm - N/A   Clear
4:55 AM 51.8 °F 48.2 °F 88% 30.24 in 10.0 mi Calm Calm - N/A   Clear
5:14 AM 51.8 °F 50.0 °F 94% 30.24 in 10.0 mi Calm Calm - N/A   Clear
5:35 AM 51.8 °F 50.0 °F 94% 30.24 in 10.0 mi Calm Calm - N/A   Clear
5:55 AM 50.0 °F 48.2 °F 94% 30.25 in 10.0 mi Calm Calm - N/A   Clear
6:14 AM 51.8 °F 50.0 °F 94% 30.25 in 10.0 mi Calm Calm - N/A   Clear
6:35 AM 50.0 °F 48.2 °F 94% 30.25 in 10.0 mi Calm Calm - N/A   Clear
6:55 AM 50.0 °F 48.2 °F 94% 30.26 in 10.0 mi Calm Calm - N/A   Clear
7:14 AM 50.0 °F 50.0 °F 100% 30.26 in 10.0 mi Calm Calm - N/A   Clear
7:35 AM 51.8 °F 51.8 °F 100% 30.26 in 10.0 mi Calm Calm - N/A   Clear
7:55 AM 53.6 °F 51.8 °F 94% 30.26 in 10.0 mi Calm Calm - N/A   Clear
8:14 AM 55.4 °F 53.6 °F 94% 30.26 in 10.0 mi Calm Calm - N/A   Clear
8:35 AM 59.0 °F 55.4 °F 88% 30.26 in 10.0 mi South 3.5 mph - N/A   Clear
8:55 AM 62.6 °F 57.2 °F 82% 30.26 in 10.0 mi South 3.5 mph - N/A   Clear
9:14 AM 64.4 °F 55.4 °F 73% 30.26 in 10.0 mi Calm Calm - N/A   Clear
9:35 AM 66.2 °F 55.4 °F 68% 30.26 in 10.0 mi Calm Calm - N/A   Clear
9:55 AM 68.0 °F 55.4 °F 64% 30.26 in 10.0 mi Calm Calm - N/A   Clear
10:14 AM 68.0 °F 57.2 °F 68% 30.26 in 10.0 mi Calm Calm - N/A   Clear
10:35 AM 71.6 °F 53.6 °F 53% 30.27 in 10.0 mi Calm Calm - N/A   Clear
10:55 AM 71.6 °F 55.4 °F 57% 30.27 in 10.0 mi Calm Calm - N/A   Clear
11:14 AM 73.4 °F 55.4 °F 53% 30.28 in 10.0 mi Calm Calm - N/A   Clear
11:35 AM 73.4 °F 53.6 °F 50% 30.27 in 10.0 mi ESE 3.5 mph - N/A   Clear
11:55 AM 75.2 °F 51.8 °F 44% 30.28 in 10.0 mi East 3.5 mph - N/A   Clear
12:15 PM 75.2 °F 50.0 °F 41% 30.27 in 10.0 mi Calm Calm - N/A   Clear
12:35 PM 73.4 °F 50.0 °F 44% 30.27 in 10.0 mi Calm Calm - N/A   Clear
12:55 PM 77.0 °F 50.0 °F 39% 30.27 in 10.0 mi ESE 4.6 mph - N/A   Scattered Clouds
1:15 PM 77.0 °F 50.0 °F 39% 30.26 in 10.0 mi Calm Calm - N/A   Scattered Clouds
1:35 PM 77.0 °F 48.2 °F 36% 30.25 in 10.0 mi Calm Calm - N/A   Clear
1:55 PM 77.0 °F 48.2 °F 36% 30.25 in 10.0 mi Calm Calm - N/A   Clear
2:15 PM 78.8 °F 50.0 °F 36% 30.24 in 10.0 mi SE 4.6 mph - N/A   Clear
2:35 PM 78.8 °F 50.0 °F 36% 30.24 in 10.0 mi East 5.8 mph - N/A   Clear
2:54 PM 78.8 °F 46.4 °F 32% 30.23 in 10.0 mi South 3.5 mph - N/A   Clear
3:15 PM 78.8 °F 50.0 °F 36% 30.23 in 10.0 mi East 6.9 mph - N/A   Clear
3:35 PM 78.8 °F 46.4 °F 32% 30.22 in 10.0 mi ESE 8.1 mph - N/A   Clear
3:55 PM 78.8 °F 46.4 °F 32% 30.22 in 10.0 mi SE 8.1 mph - N/A   Clear
4:15 PM 78.8 °F 44.6 °F 30% 30.22 in 10.0 mi Calm Calm - N/A   Clear
4:35 PM 78.8 °F 46.4 °F 32% 30.22 in 10.0 mi East 5.8 mph - N/A   Clear
4:54 PM 78.8 °F 46.4 °F 32% 30.22 in 10.0 mi SE 5.8 mph - N/A   Clear
5:15 PM 78.8 °F 44.6 °F 30% 30.22 in 10.0 mi Calm Calm - N/A   Clear
5:35 PM 78.8 °F 44.6 °F 30% 30.21 in 10.0 mi SE 8.1 mph - N/A   Clear
5:54 PM 78.8 °F 44.6 °F 30% 30.21 in 10.0 mi SSE 6.9 mph - N/A   Clear
6:15 PM 78.8 °F 44.6 °F 30% 30.21 in 10.0 mi SE 6.9 mph - N/A   Clear
6:35 PM 77.0 °F 44.6 °F 32% 30.21 in 10.0 mi SE 3.5 mph - N/A   Clear
6:54 PM 77.0 °F 46.4 °F 34% 30.21 in 10.0 mi SSE 4.6 mph - N/A   Clear
7:15 PM 77.0 °F 44.6 °F 32% 30.21 in 10.0 mi SE 3.5 mph - N/A   Clear
7:35 PM 75.2 °F 46.4 °F 36% 30.21 in 10.0 mi Calm Calm - N/A   Clear
7:54 PM 73.4 °F 48.2 °F 41% 30.20 in 10.0 mi Calm Calm - N/A   Clear
8:15 PM 73.4 °F 46.4 °F 38% 30.20 in 10.0 mi Calm Calm - N/A   Clear
8:35 PM 71.6 °F 50.0 °F 46% 30.21 in 10.0 mi Calm Calm - N/A   Clear
8:54 PM 69.8 °F 51.8 °F 53% 30.21 in 10.0 mi Calm Calm - N/A   Clear
9:15 PM 68.0 °F 51.8 °F 56% 30.21 in 10.0 mi Calm Calm - N/A   Clear
9:35 PM 64.4 °F 50.0 °F 59% 30.21 in 10.0 mi East 3.5 mph - N/A   Clear
9:54 PM 64.4 °F 50.0 °F 59% 30.22 in 10.0 mi East 4.6 mph - N/A   Clear
10:15 PM 64.4 °F 50.0 °F 59% 30.22 in 10.0 mi ESE 4.6 mph - N/A   Clear
10:35 PM 64.4 °F 50.0 °F 59% 30.22 in 10.0 mi ESE 3.5 mph - N/A   Clear
10:54 PM 64.4 °F 50.0 °F 59% 30.22 in 10.0 mi ESE 4.6 mph - N/A   Clear
11:15 PM 62.6 °F 50.0 °F 63% 30.22 in 10.0 mi ESE 3.5 mph - N/A   Clear
11:35 PM 60.8 °F 51.8 °F 72% 30.22 in 10.0 mi ESE 3.5 mph - N/A   Clear
11:54 PM 59.0 °F 50.0 °F 72% 30.22 in 10.0 mi SE 3.5 mph - N/A   Clear